Time,TemperatureF,DewpointF,PressureIn,WindDirection,WindDirectionDegrees,WindSpeedMPH,WindSpeedGustMPH,Humidity,HourlyPrecipIn,Conditions,Clouds,dailyrainin,SolarRadiationWatts/m^2,SoftwareType,DateUTC
2013-02-04 00:01:00,32.0,18.0,-100.00,SE,129,7.0,9.0,55,0.00,,,0.00,0.000000,,2013-02-04 07:01:00,
2013-02-04 00:11:00,32.0,18.0,-100.00,SE,129,7.0,9.0,55,0.00,,,0.00,0.000000,,2013-02-04 07:11:00,
2013-02-04 00:32:00,35.0,20.0,-100.00,SSE,159,10.0,13.0,53,0.00,,,0.00,0.000000,,2013-02-04 07:32:00,
2013-02-04 00:42:00,35.0,20.0,-100.00,SSE,159,10.0,13.0,53,0.00,,,0.00,0.000000,,2013-02-04 07:42:00,
2013-02-04 00:52:00,35.0,20.0,-100.00,SSE,159,10.0,13.0,53,0.00,,,0.00,0.000000,,2013-02-04 07:52:00,
2013-02-04 01:01:00,35.0,20.0,-100.00,SSE,159,10.0,13.0,53,0.00,,,0.00,0.000000,,2013-02-04 08:01:00,
2013-02-04 01:11:00,35.0,20.0,-100.00,SSE,159,10.0,13.0,53,0.00,,,0.00,0.000000,,2013-02-04 08:11:00,
2013-02-04 01:42:00,34.0,19.0,-100.00,SSE,167,12.0,17.0,54,0.00,,,0.00,0.000000,,2013-02-04 08:42:00,
2013-02-04 01:52:00,34.0,19.0,-100.00,SSE,167,12.0,17.0,54,0.00,,,0.00,0.000000,,2013-02-04 08:52:00,
2013-02-04 02:01:00,34.0,19.0,-100.00,SSE,167,12.0,17.0,54,0.00,,,0.00,0.000000,,2013-02-04 09:01:00,
2013-02-04 02:11:00,34.0,19.0,-100.00,SSE,167,12.0,17.0,54,0.00,,,0.00,0.000000,,2013-02-04 09:11:00,
2013-02-04 02:42:00,34.0,17.0,-100.00,South,169,10.0,14.0,50,0.00,,,0.00,0.000000,,2013-02-04 09:42:00,
2013-02-04 02:52:00,34.0,17.0,-100.00,South,169,10.0,14.0,50,0.00,,,0.00,0.000000,,2013-02-04 09:52:00,
2013-02-04 03:01:00,34.0,17.0,-100.00,South,169,10.0,14.0,50,0.00,,,0.00,0.000000,,2013-02-04 10:01:00,
2013-02-04 03:11:00,34.0,17.0,-100.00,South,169,10.0,14.0,50,0.00,,,0.00,0.000000,,2013-02-04 10:11:00,
2013-02-04 03:42:00,35.0,17.0,-100.00,SSE,158,10.0,15.0,48,0.00,,,0.00,0.000000,,2013-02-04 10:42:00,
2013-02-04 03:52:00,35.0,17.0,-100.00,SSE,158,10.0,15.0,48,0.00,,,0.00,0.000000,,2013-02-04 10:52:00,
2013-02-04 04:01:00,35.0,17.0,-100.00,SSE,158,10.0,15.0,48,0.00,,,0.00,0.000000,,2013-02-04 11:01:00,
2013-02-04 04:11:00,35.0,17.0,-100.00,SSE,158,10.0,15.0,48,0.00,,,0.00,0.000000,,2013-02-04 11:11:00,
2013-02-04 04:42:00,35.0,18.0,-100.00,South,176,9.0,18.0,49,0.00,,,0.00,0.000000,,2013-02-04 11:42:00,
2013-02-04 04:52:00,35.0,18.0,-100.00,South,176,9.0,18.0,49,0.00,,,0.00,0.000000,,2013-02-04 11:52:00,
2013-02-04 05:02:00,35.0,18.0,-100.00,South,176,9.0,18.0,49,0.00,,,0.00,0.000000,,2013-02-04 12:02:00,
2013-02-04 05:12:00,35.0,18.0,-100.00,South,176,9.0,18.0,49,0.00,,,0.00,0.000000,,2013-02-04 12:12:00,
2013-02-04 05:33:00,35.0,18.0,-100.00,SSE,161,10.0,17.0,49,0.00,,,0.00,0.000000,,2013-02-04 12:33:00,
2013-02-04 05:42:00,35.0,18.0,-100.00,SSE,161,10.0,17.0,49,0.00,,,0.00,0.000000,,2013-02-04 12:42:00,
2013-02-04 05:53:00,35.0,18.0,-100.00,SSE,161,10.0,17.0,49,0.00,,,0.00,0.000000,,2013-02-04 12:53:00,
2013-02-04 06:02:00,35.0,18.0,-100.00,SSE,161,10.0,17.0,49,0.00,,,0.00,0.000000,,2013-02-04 13:02:00,
2013-02-04 06:11:00,35.0,18.0,-100.00,SSE,161,10.0,17.0,49,0.00,,,0.00,0.000000,,2013-02-04 13:11:00,
2013-02-04 06:42:00,35.0,20.0,-100.00,South,187,11.0,17.0,55,0.00,,,0.00,0.000000,,2013-02-04 13:42:00,
2013-02-04 06:52:00,35.0,20.0,-100.00,South,187,11.0,17.0,55,0.00,,,0.00,0.000000,,2013-02-04 13:52:00,
2013-02-04 07:02:00,35.0,20.0,-100.00,South,187,11.0,17.0,55,0.00,,,0.00,0.000000,,2013-02-04 14:02:00,
2013-02-04 07:11:00,35.0,20.0,-100.00,South,187,11.0,17.0,55,0.00,,,0.00,0.000000,,2013-02-04 14:11:00,
2013-02-04 07:33:00,35.0,20.0,-100.00,South,170,10.0,20.0,53,0.00,,,0.00,0.000000,,2013-02-04 14:33:00,
2013-02-04 07:42:00,35.0,20.0,-100.00,South,170,10.0,20.0,53,0.00,,,0.00,0.000000,,2013-02-04 14:42:00,
2013-02-04 07:52:00,35.0,20.0,-100.00,South,170,10.0,20.0,53,0.00,,,0.00,0.000000,,2013-02-04 14:52:00,
2013-02-04 08:03:00,35.0,20.0,-100.00,South,170,10.0,20.0,53,0.00,,,0.00,0.000000,,2013-02-04 15:03:00,
2013-02-04 08:12:00,35.0,20.0,-100.00,South,170,10.0,20.0,53,0.00,,,0.00,0.000000,,2013-02-04 15:12:00,
2013-02-04 08:33:00,35.0,20.0,-100.00,SSE,166,9.0,15.0,55,0.00,,,0.00,1.000000,,2013-02-04 15:33:00,
2013-02-04 08:43:00,35.0,20.0,-100.00,SSE,166,9.0,15.0,55,0.00,,,0.00,1.000000,,2013-02-04 15:43:00,
2013-02-04 08:52:00,35.0,20.0,-100.00,SSE,166,9.0,15.0,55,0.00,,,0.00,1.000000,,2013-02-04 15:52:00,
2013-02-04 09:02:00,35.0,20.0,-100.00,SSE,166,9.0,15.0,55,0.00,,,0.00,1.000000,,2013-02-04 16:02:00,
2013-02-04 09:11:00,35.0,20.0,-100.00,SSE,166,9.0,15.0,55,0.00,,,0.00,1.000000,,2013-02-04 16:11:00,
2013-02-04 10:42:00,35.0,22.0,-100.00,SSE,163,11.0,14.0,59,-99.99,,,-99.99,57.000000,,2013-02-04 17:42:00,
2013-02-04 10:52:00,35.0,22.0,-100.00,SSE,163,11.0,14.0,59,-99.99,,,-99.99,57.000000,,2013-02-04 17:52:00,
2013-02-04 11:03:00,35.0,22.0,-100.00,SSE,163,11.0,14.0,59,-99.99,,,-99.99,57.000000,,2013-02-04 18:03:00,
2013-02-04 11:11:00,35.0,22.0,-100.00,SSE,163,11.0,14.0,59,-99.99,,,-99.99,57.000000,,2013-02-04 18:11:00,
2013-02-04 11:32:00,35.0,23.0,-100.00,South,172,10.0,17.0,61,0.00,,,-99.99,107.000000,,2013-02-04 18:32:00,
2013-02-04 11:42:00,35.0,23.0,-100.00,South,172,10.0,17.0,61,0.00,,,-99.99,107.000000,,2013-02-04 18:42:00,
2013-02-04 11:52:00,35.0,23.0,-100.00,South,172,10.0,17.0,61,0.00,,,-99.99,107.000000,,2013-02-04 18:52:00,
2013-02-04 12:01:00,35.0,23.0,-100.00,South,172,10.0,17.0,61,0.00,,,-99.99,107.000000,,2013-02-04 19:01:00,
2013-02-04 12:11:00,35.0,23.0,-100.00,South,172,10.0,17.0,61,0.00,,,-99.99,107.000000,,2013-02-04 19:11:00,
2013-02-04 12:42:00,35.0,23.0,-100.00,South,191,9.0,14.0,62,0.00,,,-99.99,93.000000,,2013-02-04 19:42:00,
2013-02-04 12:52:00,35.0,23.0,-100.00,South,191,9.0,14.0,62,0.00,,,-99.99,93.000000,,2013-02-04 19:52:00,
2013-02-04 13:02:00,35.0,23.0,-100.00,South,191,9.0,14.0,62,0.00,,,-99.99,93.000000,,2013-02-04 20:02:00,
2013-02-04 13:11:00,35.0,23.0,-100.00,South,191,9.0,14.0,62,0.00,,,-99.99,93.000000,,2013-02-04 20:11:00,
2013-02-04 13:42:00,36.0,23.0,-100.00,SSW,194,10.0,15.0,60,0.00,,,-99.99,153.000000,,2013-02-04 20:42:00,
2013-02-04 13:52:00,36.0,23.0,-100.00,SSW,194,10.0,15.0,60,0.00,,,-99.99,153.000000,,2013-02-04 20:52:00,
2013-02-04 14:01:00,36.0,23.0,-100.00,SSW,194,10.0,15.0,60,0.00,,,-99.99,153.000000,,2013-02-04 21:01:00,
2013-02-04 14:11:00,36.0,23.0,-100.00,SSW,194,10.0,15.0,60,0.00,,,-99.99,153.000000,,2013-02-04 21:11:00,
2013-02-04 14:43:00,37.0,25.0,-100.00,SSW,201,7.0,14.0,61,0.00,,,-99.99,143.000000,,2013-02-04 21:43:00,
2013-02-04 14:52:00,37.0,25.0,-100.00,SSW,201,7.0,14.0,61,0.00,,,-99.99,143.000000,,2013-02-04 21:52:00,
2013-02-04 15:02:00,37.0,25.0,-100.00,SSW,201,7.0,14.0,61,0.00,,,-99.99,143.000000,,2013-02-04 22:02:00,
2013-02-04 15:11:00,37.0,25.0,-100.00,SSW,201,7.0,14.0,61,0.00,,,-99.99,143.000000,,2013-02-04 22:11:00,
2013-02-04 15:42:00,37.0,24.0,-100.00,South,185,8.0,14.0,58,0.00,,,-99.99,156.000000,,2013-02-04 22:42:00,
2013-02-04 15:52:00,37.0,24.0,-100.00,South,185,8.0,14.0,58,0.00,,,-99.99,156.000000,,2013-02-04 22:52:00,
2013-02-04 16:01:00,37.0,24.0,-100.00,South,185,8.0,14.0,58,0.00,,,-99.99,156.000000,,2013-02-04 23:01:00,
2013-02-04 16:11:00,37.0,24.0,-100.00,South,185,8.0,14.0,58,0.00,,,-99.99,156.000000,,2013-02-04 23:11:00,
2013-02-04 16:32:00,36.0,23.0,-100.00,SSW,203,10.0,19.0,60,0.00,,,-99.99,96.000000,,2013-02-04 23:32:00,
2013-02-04 16:42:00,36.0,23.0,-100.00,SSW,203,10.0,19.0,60,0.00,,,-99.99,96.000000,,2013-02-04 23:42:00,
2013-02-04 16:52:00,36.0,23.0,-100.00,SSW,203,10.0,19.0,60,0.00,,,-99.99,96.000000,,2013-02-04 23:52:00,
2013-02-04 17:01:00,36.0,23.0,-100.00,SSW,203,10.0,19.0,60,0.00,,,-99.99,96.000000,,2013-02-05 00:01:00,
2013-02-04 17:11:00,36.0,23.0,-100.00,SSW,203,10.0,19.0,60,0.00,,,-99.99,96.000000,,2013-02-05 00:11:00,
2013-02-04 17:42:00,35.0,24.0,-100.00,South,191,9.0,14.0,64,0.00,,,-99.99,55.000000,,2013-02-05 00:42:00,
2013-02-04 17:52:00,35.0,24.0,-100.00,South,191,9.0,14.0,64,0.00,,,-99.99,55.000000,,2013-02-05 00:52:00,
2013-02-04 18:01:00,35.0,24.0,-100.00,South,191,9.0,14.0,64,0.00,,,-99.99,55.000000,,2013-02-05 01:01:00,
2013-02-04 18:11:00,35.0,24.0,-100.00,South,191,9.0,14.0,64,0.00,,,-99.99,55.000000,,2013-02-05 01:11:00,
2013-02-04 18:42:00,36.0,25.0,-100.00,SSE,167,10.0,15.0,63,0.00,,,-99.99,3.000000,,2013-02-05 01:42:00,
2013-02-04 18:52:00,36.0,25.0,-100.00,SSE,167,10.0,15.0,63,0.00,,,-99.99,3.000000,,2013-02-05 01:52:00,
2013-02-04 19:01:00,36.0,25.0,-100.00,SSE,167,10.0,15.0,63,0.00,,,-99.99,3.000000,,2013-02-05 02:01:00,
2013-02-04 19:11:00,36.0,25.0,-100.00,SSE,167,10.0,15.0,63,0.00,,,-99.99,3.000000,,2013-02-05 02:11:00,
2013-02-04 19:42:00,36.0,23.0,-100.00,SSE,159,10.0,17.0,60,0.00,,,-99.99,0.000000,,2013-02-05 02:42:00,
2013-02-04 19:52:00,36.0,23.0,-100.00,SSE,159,10.0,17.0,60,0.00,,,-99.99,0.000000,,2013-02-05 02:52:00,
2013-02-04 20:01:00,36.0,23.0,-100.00,SSE,159,10.0,17.0,60,0.00,,,-99.99,0.000000,,2013-02-05 03:01:00,
2013-02-04 20:11:00,36.0,23.0,-100.00,SSE,159,10.0,17.0,60,0.00,,,-99.99,0.000000,,2013-02-05 03:11:00,
2013-02-04 20:32:00,35.0,23.0,-100.00,SE,137,7.0,12.0,60,0.00,,,-99.99,0.000000,,2013-02-05 03:32:00,
2013-02-04 20:42:00,35.0,23.0,-100.00,SE,137,7.0,12.0,60,0.00,,,-99.99,0.000000,,2013-02-05 03:42:00,
2013-02-04 20:52:00,35.0,23.0,-100.00,SE,137,7.0,12.0,60,0.00,,,-99.99,0.000000,,2013-02-05 03:52:00,
2013-02-04 21:01:00,35.0,23.0,-100.00,SE,137,7.0,12.0,60,0.00,,,-99.99,0.000000,,2013-02-05 04:01:00,
2013-02-04 21:11:00,35.0,23.0,-100.00,SE,137,7.0,12.0,60,0.00,,,-99.99,0.000000,,2013-02-05 04:11:00,
2013-02-04 21:32:00,34.0,21.0,-100.00,SSE,159,9.0,12.0,59,0.00,,,-99.99,0.000000,,2013-02-05 04:32:00,
2013-02-04 21:42:00,34.0,21.0,-100.00,SSE,159,9.0,12.0,59,0.00,,,-99.99,0.000000,,2013-02-05 04:42:00,
2013-02-04 21:52:00,34.0,21.0,-100.00,SSE,159,9.0,12.0,59,0.00,,,-99.99,0.000000,,2013-02-05 04:52:00,
2013-02-04 22:02:00,34.0,21.0,-100.00,SSE,159,9.0,12.0,59,0.00,,,-99.99,0.000000,,2013-02-05 05:02:00,
2013-02-04 22:11:00,34.0,21.0,-100.00,SSE,159,9.0,12.0,59,0.00,,,-99.99,0.000000,,2013-02-05 05:11:00,
2013-02-04 22:42:00,34.0,23.0,-100.00,SE,139,7.0,12.0,63,0.00,,,-99.99,0.000000,,2013-02-05 05:42:00,
2013-02-04 22:52:00,34.0,23.0,-100.00,SE,139,7.0,12.0,63,0.00,,,-99.99,0.000000,,2013-02-05 05:52:00,
2013-02-04 23:01:00,34.0,23.0,-100.00,SE,139,7.0,12.0,63,0.00,,,-99.99,0.000000,,2013-02-05 06:01:00,
2013-02-04 23:11:00,34.0,23.0,-100.00,SE,139,7.0,12.0,63,0.00,,,-99.99,0.000000,,2013-02-05 06:11:00,
2013-02-04 23:32:00,33.0,22.0,-100.00,SE,130,8.0,12.0,63,0.00,,,-99.99,0.000000,,2013-02-05 06:32:00,
2013-02-04 23:42:00,33.0,22.0,-100.00,SE,130,8.0,12.0,63,0.00,,,-99.99,0.000000,,2013-02-05 06:42:00,
2013-02-04 23:52:00,33.0,22.0,-100.00,SE,130,8.0,12.0,63,0.00,,,-99.99,0.000000,,2013-02-05 06:52:00,